TimeEDT,TemperatureF,Dew PointF,Humidity,Sea Level PressureIn,VisibilityMPH,Wind Direction,Wind SpeedMPH,Gust SpeedMPH,PrecipitationIn,Events,Conditions,WindDirDegrees,DateUTC
12:19 AM,68.0,66.2,94,29.74,6.0,WSW,6.9,-,0.05,Rain,Light Rain,240,2013-11-02 04:19:00
12:37 AM,68.0,66.2,94,29.73,7.0,SW,8.1,-,0.07,Rain,Light Rain,230,2013-11-02 04:37:00
12:54 AM,66.9,66.0,97,29.72,10.0,SW,5.8,-,0.07,Rain,Light Rain,220,2013-11-02 04:54:00
1:12 AM,66.2,64.4,94,29.72,10.0,West,6.9,-,0.02,Rain,Light Rain,270,2013-11-02 05:12:00
1:37 AM,66.2,64.4,94,29.73,10.0,SW,4.6,-,0.02,,Overcast,230,2013-11-02 05:37:00
1:44 AM,66.2,64.4,94,29.72,10.0,WSW,5.8,-,0.02,,Overcast,240,2013-11-02 05:44:00
1:54 AM,66.9,64.9,93,29.73,10.0,SW,3.5,-,0.02,,Overcast,220,2013-11-02 05:54:00
2:08 AM,66.2,64.4,94,29.73,10.0,West,5.8,-,N/A,,Overcast,270,2013-11-02 06:08:00
2:24 AM,66.2,64.4,94,29.73,10.0,West,8.1,-,N/A,,Overcast,260,2013-11-02 06:24:00
2:54 AM,66.0,64.0,93,29.73,10.0,West,9.2,-,N/A,,Overcast,270,2013-11-02 06:54:00
3:29 AM,64.4,62.6,94,29.73,10.0,West,5.8,-,N/A,,Mostly Cloudy,280,2013-11-02 07:29:00
3:54 AM,64.0,62.1,93,29.72,10.0,NW,9.2,-,N/A,,Partly Cloudy,310,2013-11-02 07:54:00
4:12 AM,62.6,60.8,94,29.73,10.0,WNW,9.2,-,N/A,,Mostly Cloudy,300,2013-11-02 08:12:00
4:45 AM,62.6,60.8,94,29.73,10.0,WNW,6.9,-,N/A,,Scattered Clouds,290,2013-11-02 08:45:00
4:54 AM,62.1,59.0,90,29.73,10.0,WNW,5.8,-,N/A,,Partly Cloudy,290,2013-11-02 08:54:00
5:08 AM,60.8,59.0,94,29.74,10.0,West,4.6,-,N/A,,Mostly Cloudy,280,2013-11-02 09:08:00
5:54 AM,61.0,59.0,93,29.74,10.0,Calm,Calm,-,N/A,,Overcast,0,2013-11-02 09:54:00
6:18 AM,60.8,59.0,94,29.74,9.0,Calm,Calm,-,N/A,,Scattered Clouds,0,2013-11-02 10:18:00
6:54 AM,61.0,59.0,93,29.75,10.0,West,3.5,-,N/A,,Partly Cloudy,270,2013-11-02 10:54:00
7:54 AM,61.0,59.0,93,29.77,9.0,West,4.6,-,N/A,,Clear,270,2013-11-02 11:54:00
8:54 AM,61.0,60.1,97,29.80,6.0,West,3.5,-,N/A,,Partly Cloudy,260,2013-11-02 12:54:00
9:13 AM,62.6,60.8,94,29.80,6.0,WNW,5.8,-,N/A,,Mostly Cloudy,290,2013-11-02 13:13:00
9:54 AM,62.1,59.0,90,29.80,8.0,NW,8.1,-,N/A,,Scattered Clouds,320,2013-11-02 13:54:00
10:54 AM,63.0,59.0,87,29.81,10.0,NW,3.5,-,N/A,,Partly Cloudy,310,2013-11-02 14:54:00
11:54 AM,69.1,55.9,63,29.81,10.0,Variable,3.5,-,N/A,,Clear,0,2013-11-02 15:54:00
12:54 PM,72.0,52.0,49,29.78,10.0,West,3.5,-,N/A,,Clear,270,2013-11-02 16:54:00
1:54 PM,72.0,48.9,44,29.77,10.0,West,10.4,-,N/A,,Clear,280,2013-11-02 17:54:00
2:54 PM,72.0,46.9,41,29.76,10.0,West,5.8,-,N/A,,Clear,260,2013-11-02 18:54:00
3:54 PM,71.1,46.0,41,29.75,10.0,West,10.4,-,N/A,,Clear,280,2013-11-02 19:54:00
4:54 PM,73.0,44.1,35,29.76,10.0,WNW,10.4,-,N/A,,Clear,290,2013-11-02 20:54:00
5:54 PM,69.1,46.0,44,29.78,10.0,West,5.8,-,N/A,,Clear,270,2013-11-02 21:54:00
6:54 PM,59.0,52.0,78,29.79,10.0,Calm,Calm,-,N/A,,Clear,0,2013-11-02 22:54:00
7:54 PM,55.9,52.0,87,29.83,10.0,West,5.8,-,N/A,,Scattered Clouds,280,2013-11-02 23:54:00
8:16 PM,62.6,44.6,52,29.86,10.0,NW,15.0,-,N/A,,Partly Cloudy,320,2013-11-03 00:16:00
8:54 PM,59.0,45.0,60,29.87,10.0,NW,6.9,-,N/A,,Clear,320,2013-11-03 00:54:00
9:54 PM,53.1,46.0,77,29.89,10.0,West,3.5,-,N/A,,Partly Cloudy,280,2013-11-03 01:54:00
10:54 PM,51.1,46.9,86,29.92,10.0,Calm,Calm,-,N/A,,Clear,0,2013-11-03 02:54:00
11:54 PM,50.0,45.0,83,29.94,10.0,Calm,Calm,-,N/A,,Clear,0,2013-11-03 03:54:00